Miscellaneous Local Product
Issued by NWS Hastings, NE

Home | Current Version | Previous Version | Graphics & Text | Print | Product List | Glossary On
Versions: 1 2 3 4 5 6 7 8 9 10 11 12 13 14 15 16 17 18 19 20 21 22 23 24 25 26 27 28 29 30 31 32 33 34 35 36 37 38 39 40 41 42 43 44 45 46 47 48 49 50
000
AXUS43 KGID 291002
MISGRI

GID CWA HOURLY WEATHER ROUNDUP
NATIONAL WEATHER SERVICE HASTINGS NE
500 AM CDT MON JUN 29 2015

NOTE: "FAIR" INDICATES FEW OR NO CLOUDS BELOW 12,000 FEET WITH NO
SIGNIFICANT WEATHER AND/OR OBSTRUCTIONS TO VISIBILITY.

...SOUTH CENTRAL NEBRASKA...

CITY           SKY/WX    TMP DP  RH WIND       PRES   REMARKS
GRAND ISLAND   CLEAR     57  54  89 W8        30.01S
HASTINGS       CLEAR     60  55  83 W3        30.01S
KEARNEY        CLEAR     57  52  82 NW6       30.03S
ORD            CLEAR     56  53  90 CALM      30.01S
YORK           PTCLDY    59  57  94 W7        29.98S
AURORA         CLEAR     58  56  94 W6        30.00R
LEXINGTON      CLEAR     56  54  92 NW6       30.05S
HOLDREGE       CLEAR     58  53  83 CALM      30.04S
HEBRON         CLEAR     61  56  82 CALM      29.97S

...NEBRASKA PANHANDLE...

CITY           SKY/WX    TMP DP  RH WIND       PRES   REMARKS
CHADRON        PTCLDY    59  58  96 NW6       30.08R
ALLIANCE       PTCLDY    61  57  87 SW7       30.11F
SCOTTSBLUFF    MOCLDY    67  56  67 CALM      30.12F
SIDNEY         CLOUDY    63  58  83 SW8       30.18F

...WESTERN AND NORTH CENTRAL NEBRASKA...

CITY           SKY/WX    TMP DP  RH WIND       PRES   REMARKS
VALENTINE      CLEAR     55  54  96 W6        30.04F
AINSWORTH      CLEAR     59  55  85 W5        30.04F
ONEILL         CLOUDY    59  56  91 W5        30.00S
BROKEN BOW     CLEAR     56  53  90 CALM      30.04F
IMPERIAL       MOCLDY    62  58  86 NE6       30.09F
NORTH PLATTE   CLEAR     57  54  89 W3        30.07S
MCCOOK         CLEAR     62  56  80 CALM      30.05S

...EASTERN NEBRASKA...

CITY           SKY/WX    TMP DP  RH WIND       PRES   REMARKS
NORFOLK        CLEAR     62  57  83 W8        29.96R
SO SIOUX CITY  CLEAR     63  58  83 NW7       29.91R
TEKAMAH        CLEAR     62  58  86 NW3       29.91R
COLUMBUS       CLEAR     63  54  72 W6        29.94S
ALBION         CLEAR     56  52  88 N5        30.00R
OMAHA EPPLEY   CLEAR     66  61  84 CALM      29.91R
OFFUTT AFB     CLEAR     63  60  87 NW3       29.91R
MILLARD        CLEAR     65  61  85 CALM      29.91S
LINCOLN        CLEAR     62  58  86 CALM      29.95S
NEBRASKA CITY  CLEAR     65  56  74 NW7       29.92S
BEATRICE       CLEAR     61  59  92 CALM      29.95S
FALLS CITY     CLEAR     63  60  90 NW6       29.91R

...NORTHERN KANSAS...

CITY           SKY/WX    TMP DP  RH WIND       PRES   REMARKS
GOODLAND       CLEAR     63  53  70 W6        30.09F
HILL CITY      PTCLDY    60  53  77 SW3       30.04S
NORTON         SUNNY     57  52  82 W5        30.03S
PHILLIPSBURG   CLEAR     61  55  82 NW6       30.02S
SMITH CENTER   CLEAR     55  52  88 N6        30.01S
HAYS           PTCLDY    63  48  59 NW6       30.02F
RUSSELL        CLEAR     62  51  67 W5        30.00S
CONCORDIA      PTCLDY    62  56  80 W7        29.97S
SALINA         CLEAR     65  54  67 NW5       29.97R
TOPEKA         CLEAR     66  60  81 CALM      29.91S



USA.gov is the U.S. government's official web portal to all federal, state and local government web resources and services.